Hayward, CA

2:10 AM PST on December 17, 2017 (GMT -0800)
Hayward Executive | | Change Station

Elev 46 ft 37.66 °N, 122.12 °W | Updated 16 minutes ago

Clear
Clear
54 °F
Feels Like 54 °F
N
6
Wind Variable Wind from North

Today
High -- | Low -- °F
--% Chance of Precip.
Yesterday
High -- | Low -- °F
Precip. -- in
Pressure 30.02 in
Visibility 10.0 miles
Clouds Clear
Dew Point 14 °F
Humidity 21%
Rainfall 0.00 in
Snow Depth Not available.
7:17 AM 4:51 PM
Waning Crescent, 1% visible
METAR KHWD 170954Z AUTO 35005KT 10SM CLR 12/M10 A2999 RMK AO2 SLP165 T01221100
Pressure 30.02 in
Visibility 10.0 miles
Clouds Clear
Dew Point 14 °F
Humidity 21%
Rainfall 0.00 in
Snow Depth Not available.
7:17 AM 4:51 PM
Waning Crescent, 1% visible
METAR KHWD 170954Z AUTO 35005KT 10SM CLR 12/M10 A2999 RMK AO2 SLP165 T01221100

Get Severe Weather Alerts

Thanks for signing up!

Be on the lookout for a verification email in your inbox.

You'll start receiving the daily forecast at 6 AM.

×

10-Day Weather Forecast

Almanac

Astronomy

Dec. 17, 2017 Rise Set
Actual Time
Civil Twilight
Nautical Twilight
Astronomical Twilight
Moon
Length of Visible Light
Length of Day
Tomorrow will be .
, % of the Moon is Illuminated

Today's Extremes

State Highs State Lows

Community

WunderPhotos

Category 6

Welcome to Category 6. This is the collective home for Weather Underground's featured writeups by Dr. Jeff Masters (right), Bob Henson (left), Chris Burt, and other regular contributors.

Nearby

Air Quality

  Air Quality AQ Index Pollutant
Not available.

Snow Depth

Station Depth Elevation

Earthquake Activity

City Distance Mag. Time & Date
Minimum magnitude displayed is 2.5.

Coastal Water Temperatures

Place Temperature

Stations

Nearby Weather Stations

Station Location Temp. Windchill Dew Point Humidity Wind Precip. Elev Updated Type
                   

Watches & Warnings

There are currently no watches in effect.